Newark, OH

10:14 PM EDT on September 24, 2016 (GMT -0400)
Newark Heath

Weather History for KVTA - June, 2013

Change the Weather History Date:

Saturday, June 15, 2013

  Actual Average Record
Temperature  
Mean Temperature 64 °F -  
Max Temperature 80 °F 82 °F 94 °F (1952)
Min Temperature 48 °F 59 °F 44 °F (1959)
Degree Days  
Heating Degree Days 2    
Growing Degree Days 14 (Base 50)    
Moisture  
Dew Point 53 °F    
Average Humidity 83    
Maximum Humidity 100    
Minimum Humidity 40    
Precipitation  
Precipitation 0.01 in - - ()
Sea Level Pressure  
Sea Level Pressure 30.08 in    
Wind  
Wind Speed 1 mph (South)    
Max Wind Speed 7 mph    
Max Gust Speed -    
Visibility 4 miles    
Events Fog    
Averages and records for this station are not official NWS values.
T = Trace of Precipitation, MM = Missing Value Source: NWS Daily Summary

Daily Weather History Graph

Daily Weather History Graph

Search for Another Location

Airport or City:

Trip Planner

Search our weather history database for the weather conditions in past years. The results will help you decide how hot, cold, wet, or windy it might be!

Date:

Astronomy

Jun. 15, 2013 Rise Set
Actual Time 6:00 AM EDT 9:00 PM EDT
Civil Twilight 5:27 AM EDT 9:33 PM EDT
Nautical Twilight 4:45 AM EDT 10:15 PM EDT
Astronomical Twilight 3:57 AM EDT 11:03 PM EDT
Moon 12:33 PM EDT (6/15) 12:35 AM EDT (6/15)
Length of Visible Light 16h 05m
Length of Day
15h 00m
Waxing Crescent, 39% of the Moon is Illuminated
Jun 15
Waxing Crescent
Jun 16
First Quarter
Jun 23
Full
Jun 30
Last Quarter
Jul 8
New

Hourly Weather History & Observations

Time (EDT) Temp. Dew Point Humidity Pressure Visibility Wind Dir Wind Speed Gust Speed Precip Events Conditions
12:54 AM 57.0 °F 55.0 °F 93% 30.07 in 10.0 mi Calm Calm - N/A   Clear
1:54 AM 55.0 °F 53.1 °F 93% 30.07 in 4.0 mi Calm Calm - N/A   Clear
2:23 AM 53.6 °F 51.8 °F 94% 30.06 in 1.5 mi Calm Calm - N/A   Clear
2:31 AM 53.6 °F 51.8 °F 94% 30.06 in 0.8 mi Calm Calm - N/A   Clear
2:36 AM 53.6 °F 51.8 °F 94% 30.05 in 2.0 mi Calm Calm - N/A   Clear
2:43 AM 55.4 °F 53.6 °F 94% 30.05 in 6.0 mi Calm Calm - N/A   Clear
2:50 AM 51.8 °F 51.8 °F 100% 30.05 in 1.5 mi Calm Calm - N/A   Clear
2:54 AM 51.1 °F 50.0 °F 96% 30.05 in 0.8 mi Calm Calm - N/A   Clear
2:59 AM 51.8 °F 50.0 °F 94% 30.05 in 0.2 mi Calm Calm - N/A Fog Fog
3:10 AM 51.8 °F 50.0 °F 94% 30.05 in 1.0 mi Calm Calm - N/A   Mist
3:12 AM 51.8 °F 50.0 °F 94% 30.06 in 2.5 mi Calm Calm - N/A   Partly Cloudy
3:21 AM 51.8 °F 50.0 °F 94% 30.07 in 1.2 mi West 3.5 mph - N/A   Partly Cloudy
3:26 AM 51.8 °F 50.0 °F 94% 30.07 in 4.0 mi Calm Calm - N/A   Partly Cloudy
3:54 AM 54.0 °F 51.1 °F 90% 30.07 in 5.0 mi Calm Calm - N/A   Clear
4:00 AM 51.8 °F 51.8 °F 100% 30.09 in 1.2 mi Calm Calm - N/A   Clear
4:05 AM 50.0 °F 48.2 °F 94% 30.09 in 0.5 mi Calm Calm - N/A Fog Fog
4:13 AM 51.8 °F 48.2 °F 88% 30.09 in 0.2 mi Calm Calm - N/A Fog Fog
4:15 AM 50.0 °F 48.2 °F 94% 30.09 in 0.5 mi Calm Calm - N/A Fog Fog
4:28 AM 51.8 °F 50.0 °F 94% 30.09 in 0.2 mi Calm Calm - N/A Fog Fog
4:35 AM 51.8 °F 51.8 °F 100% 30.09 in 0.8 mi Calm Calm - N/A   Mist
4:51 AM 51.8 °F 48.2 °F 88% 30.10 in 0.2 mi Calm Calm - N/A Fog Fog
4:54 AM 50.0 °F 48.9 °F 96% 30.09 in 0.2 mi Calm Calm - N/A Fog Fog
5:10 AM 50.0 °F 48.2 °F 94% 30.11 in 0.5 mi Calm Calm - N/A Fog Fog
5:33 AM 51.8 °F 50.0 °F 94% 30.11 in 1.2 mi Calm Calm - N/A   Partly Cloudy
5:41 AM 51.8 °F 48.2 °F 88% 30.11 in 3.0 mi Calm Calm - N/A   Partly Cloudy
5:46 AM 50.0 °F 48.2 °F 94% 30.11 in 1.8 mi Calm Calm - N/A   Clear
5:50 AM 48.2 °F 48.2 °F 100% 30.11 in 0.2 mi Calm Calm - N/A Fog Fog
5:54 AM 50.0 °F 48.0 °F 93% 30.11 in 0.2 mi Calm Calm - N/A Fog Fog
6:08 AM 50.0 °F 48.2 °F 94% 30.12 in 0.2 mi Calm Calm - 0.01 in Fog Fog
6:17 AM 51.8 °F 50.0 °F 94% 30.11 in 0.2 mi Calm Calm - 0.01 in Fog Fog
6:27 AM 51.8 °F 48.2 °F 88% 30.11 in 1.0 mi Calm Calm - 0.01 in   Clear
6:35 AM 51.8 °F 50.0 °F 94% 30.12 in 5.0 mi Calm Calm - 0.01 in   Clear
6:39 AM 51.8 °F 50.0 °F 94% 30.12 in 1.8 mi Calm Calm - 0.01 in   Clear
6:49 AM 51.8 °F 50.0 °F 94% 30.12 in 3.0 mi Calm Calm - 0.01 in   Clear
6:54 AM 52.0 °F 51.1 °F 97% 30.11 in 3.0 mi Calm Calm - 0.01 in   Clear
7:54 AM 57.9 °F 55.0 °F 90% 30.13 in 8.0 mi Calm Calm - N/A   Clear
8:54 AM 64.9 °F 59.0 °F 81% 30.14 in 10.0 mi South 3.5 mph - N/A   Clear
9:54 AM 70.0 °F 59.0 °F 68% 30.13 in 10.0 mi South 4.6 mph - N/A   Clear
10:54 AM 73.0 °F 57.9 °F 59% 30.12 in 10.0 mi SSW 5.8 mph - N/A   Clear
11:54 AM 75.0 °F 55.0 °F 50% 30.10 in 10.0 mi South 4.6 mph - N/A   Clear
12:54 PM 75.9 °F 54.0 °F 46% 30.09 in 10.0 mi SSW 6.9 mph - N/A   Clear
1:54 PM 79.0 °F 53.1 °F 40% 30.07 in 10.0 mi ESE 4.6 mph - N/A   Clear
2:54 PM 79.0 °F 54.0 °F 42% 30.05 in 10.0 mi SSW 6.9 mph - N/A   Partly Cloudy
3:54 PM 77.0 °F 55.9 °F 48% 30.05 in 10.0 mi South 4.6 mph - N/A   Clear
4:54 PM 75.9 °F 57.0 °F 52% 30.05 in 10.0 mi West 5.8 mph - N/A   Clear
5:54 PM 73.9 °F 59.0 °F 59% 30.04 in 10.0 mi Calm Calm - 0.00 in   Mostly Cloudy
6:54 PM 73.9 °F 59.0 °F 59% 30.04 in 10.0 mi Calm Calm - 0.00 in   Clear
7:54 PM 73.9 °F 60.1 °F 62% 30.01 in 10.0 mi SE 4.6 mph - N/A   Clear
8:54 PM 72.0 °F 60.1 °F 66% 29.99 in 10.0 mi SE 4.6 mph - N/A   Scattered Clouds
9:54 PM 72.0 °F 60.1 °F 66% 29.99 in 10.0 mi SE 3.5 mph - N/A   Scattered Clouds
10:54 PM 71.1 °F 60.1 °F 68% 30.00 in 10.0 mi Calm Calm - N/A   Mostly Cloudy
11:54 PM 71.1 °F 59.0 °F 66% 29.99 in 10.0 mi SSE 4.6 mph - N/A   Overcast